Location: ???? ???? ?????
(31.2680°N, 31.7283°E)
Time: 03:21:15
(UTC+00:00)

Cosmos 2369 Rocket - Pass Details

Date: 13 July 2020
Orbit: 829 x 852 km, 71.0° (Epoch: 11 August)

Event Time Altitude Azimuth Distance (km) Brightness Sun altitude
Rises 21:40:52 0° 334° (NNW) 3,379 6.2 -36.9°
Reaches altitude 10° 21:43:20 10° 330° (NNW) 2,445 5.2 -36.9°
Enters shadow 21:45:50 27° 320° (NW) 1,569 3.9 -37.0°
